BEIDOU 19 (C58)

Last updated on Oct. 29, 2020, 5:53 a.m. UTC

1 40749U 15037B   20301.52986715 -.00000114  00000-0  00000-0 0  9996
2 40749  55.9440  11.8862 0004419 281.6744 179.1292  1.86232161 35772
UTC
Height (km)
Latitude
Longitude
Inclination
Orbital Period
UTC large
Height (km)
Speed (km/s)
/
Latitude / Longitude
Inclination (degrees)
Orbital Period (minutes)
Azimuth
Elevation
Range (km)
Doppler Factor
iOS Compass Heading
iOS Angle

Next 30 passes for location: Hong Kong

Rise time Rise Azimuth (degrees) Set time Set Azimuth (degrees) Duration Max altitude (degrees)

No matching passes for this satellites